North Platte, NE

2:08 PM CST on February 08, 2016 (GMT -0600)
North Platte Regional-Bird

Weather History for KLBF - July, 2013

Change the Weather History Date:

Tuesday, July 9, 2013

  Actual Average Record
Temperature  
Mean Temperature 80 °F 74 °F  
Max Temperature 99 °F 88 °F 103 °F (1980)
Min Temperature 60 °F 60 °F 42 °F (1959)
Degree Days  
Heating Degree Days 0 0  
Month to date heating degree days 4 0  
Since 1 June heating degree days 51 51  
Since 1 July heating degree days 4 0  
Cooling Degree Days 15 9  
Month to date cooling degree days 86 78  
Year to date cooling degree days 313 244  
Since 1 June cooling degree days 265 216  
Growing Degree Days 30 (Base 50)    
Moisture  
Dew Point 65 °F    
Average Humidity 63    
Maximum Humidity 93    
Minimum Humidity 33    
Precipitation  
Precipitation 0.00 in 0.10 in 2.35 in (1909)
Month to date precipitation 0.04 0.83  
Year to date precipitation 8.15 11.69  
Snow  
Snow 0.00 in 0.00 in 0.00 in (2002)
Month to date snowfall 0.0 0.0  
Since 1 June snowfall T 0.0  
Since 1 July snowfall 0.0 0.0  
Snow Depth 0.00 in    
Sea Level Pressure  
Sea Level Pressure 29.91 in    
Wind  
Wind Speed 6 mph (NE)    
Max Wind Speed 20 mph    
Max Gust Speed 25 mph    
Visibility 10 miles    
Events      
T = Trace of Precipitation, MM = Missing Value Source: NWS Daily Summary

Daily Weather History Graph

Daily Weather History Graph

Search for Another Location

Airport or City:

Trip Planner

Search our weather history database for the weather conditions in past years. The results will help you decide how hot, cold, wet, or windy it might be!

Date:

Astronomy

Jul. 09, 2013 Rise Set
Actual Time 6:18 AM CDT 9:16 PM CDT
Civil Twilight 5:45 AM CDT 9:49 PM CDT
Nautical Twilight 5:03 AM CDT 10:31 PM CDT
Astronomical Twilight 4:14 AM CDT 11:20 PM CDT
Moon 7:46 AM CDT (7/9) 9:53 PM CDT (7/9)
Length of Visible Light 16h 04m
Length of Day
14h 57m
New Moon, 2% of the Moon is Illuminated
Jul 9
New Moon
Jul 15
First Quarter
Jul 22
Full
Jul 29
Last Quarter
Aug 6
New

Hourly Weather History & Observations

Time (CDT) Temp. Heat Index Dew Point Humidity Pressure Visibility Wind Dir Wind Speed Gust Speed Precip Events Conditions
12:53 AM 71.1 °F - 64.0 °F 78% 29.85 in 10.0 mi ENE 6.9 mph - N/A   Clear
1:53 AM 70.0 °F - 64.0 °F 81% 29.88 in 10.0 mi NE 5.8 mph - N/A   Clear
2:53 AM 68.0 °F - 64.0 °F 87% 29.86 in 10.0 mi SE 3.5 mph - N/A   Clear
3:53 AM 64.9 °F - 62.1 °F 90% 29.86 in 9.0 mi Calm Calm - N/A   Clear
4:53 AM 63.0 °F - 61.0 °F 93% 29.86 in 8.0 mi Calm Calm - N/A   Clear
5:53 AM 63.0 °F - 61.0 °F 93% 29.87 in 4.0 mi NNW 4.6 mph - N/A   Clear
6:53 AM 68.0 °F - 64.0 °F 87% 29.89 in 9.0 mi NNE 4.6 mph - N/A   Clear
7:53 AM 72.0 °F - 66.0 °F 81% 29.90 in 5.0 mi Calm Calm - N/A   Haze
8:53 AM 75.9 °F - 66.0 °F 71% 29.93 in 10.0 mi NE 8.1 mph - N/A   Clear
9:53 AM 80.1 °F 81.7 °F 64.0 °F 58% 29.92 in 10.0 mi ENE 10.4 mph - N/A   Clear
10:53 AM 84.0 °F 86.3 °F 66.0 °F 55% 29.93 in 10.0 mi ENE 9.2 mph - N/A   Clear
11:53 AM 87.1 °F 89.2 °F 66.0 °F 49% 29.94 in 10.0 mi Calm Calm - N/A   Clear
12:53 PM 90.0 °F 92.8 °F 66.9 °F 46% 29.93 in 10.0 mi Variable 3.5 mph - N/A   Clear
1:53 PM 91.9 °F 94.1 °F 64.9 °F 41% 29.92 in 10.0 mi Variable 4.6 mph - N/A   Clear
2:53 PM 93.9 °F 95.6 °F 64.0 °F 37% 29.91 in 10.0 mi Calm Calm - N/A   Clear
3:53 PM 96.1 °F 99.3 °F 66.0 °F 37% 29.91 in 10.0 mi SSW 9.2 mph - N/A   Clear
4:53 PM 97.0 °F 98.3 °F 63.0 °F 32% 29.91 in 10.0 mi Variable 3.5 mph - N/A   Scattered Clouds
5:53 PM 96.1 °F 98.8 °F 64.9 °F 36% 29.90 in 10.0 mi NNE 12.7 mph - N/A   Mostly Cloudy
6:53 PM 93.9 °F 95.6 °F 64.0 °F 37% 29.91 in 10.0 mi NE 12.7 mph - N/A   Clear
7:53 PM 91.0 °F 93.0 °F 64.9 °F 42% 29.91 in 10.0 mi ENE 15.0 mph 23.0 mph N/A   Clear
8:53 PM 84.0 °F 87.0 °F 68.0 °F 58% 29.94 in 10.0 mi ENE 13.8 mph 21.9 mph N/A   Clear
9:53 PM 79.0 °F - 66.9 °F 66% 29.98 in 10.0 mi NE 8.1 mph - N/A   Clear
10:53 PM 77.0 °F - 64.9 °F 66% 30.02 in 10.0 mi NE 8.1 mph - N/A   Clear
11:53 PM 75.0 °F - 62.1 °F 64% 30.03 in 10.0 mi ENE 5.8 mph - N/A   Clear